Regional Weather Roundup
Issued by NWS

Home | Current Version | Previous Version | Text Only | Print | Product List | Glossary Off
Versions: 1 2 3 4 5 6 7 8 9 10 11 12 13 14 15 16 17 18 19 20 21 22 23 24 25 26 27 28 29 30 31 32 33 34 35 36 37 38 39 40 41 42 43 44 45 46 47 48 49 50

000
ASUS43 KLMK 221710
RWRKY
KENTUCKY REGIONAL WEATHER ROUNDUP
NATIONAL WEATHER SERVICE LOUISVILLE KY
100 PM EDT TUE AUG 22 2017

NOTE "FAIR" INDICATES FEW OR NO CLOUDS BELOW 12,000 FEET
WITH NO SIGNIFICANT WEATHER AND/OR OBSTRUCTIONS TO VISIBILITY.

KYZ001>023-026-027-061>063-070>075-221800-
WESTERN AND SOUTH CENTRAL KENTUCKY

CITY           SKY/WX    TMP DP  RH WIND       PRES   REMARKS
PADUCAH        CLOUDY    88  73  61 SW13G23   29.97F HX  95
HENDERSON      NOT AVBL
OWENSBORO      PTSUNNY   90  75  61 W14       29.96F HX 100
HOPKINSVILLE   CLOUDY    87  74  64 SW15      30.02F HX  94
BOWLING GREEN  CLOUDY    88  74  63 SW14      30.02F HX  96
GLASGOW        LGT RAIN  87  73  64 W17G25    30.03F HX  94
$$

KYZ024-025-028>034-038-045-046-053-221800-
NORTH CENTRAL KENTUCKY

CITY           SKY/WX    TMP DP  RH WIND       PRES   REMARKS
LOUISVILLE/SDF CLOUDY    89  72  56 SW18G24   29.96F THUNDER HX  96
LOUISVILLE/LOU CLOUDY    87  74  64 SW14G26   29.97F HX  95
FORT KNOX      PTSUNNY   89  72  57 SW13G20   29.97F HX  95
$$

KYZ035>037-039>044-047>052-055>060-089>105-221800-
NORTHEAST KENTUCKY

CITY           SKY/WX    TMP DP  RH WIND       PRES   REMARKS
LEXINGTON      LGT RAIN  78  73  84 VRB7      30.01F
COVINGTON      CLOUDY    78  75  90 S12       29.95F
FRANKFORT      MOSUNNY   89  71  55 SW17G24   29.97F HX  95
$$

KYZ054-064>069-076>088-106>120-221800-
SOUTHEAST KENTUCKY

CITY           SKY/WX    TMP DP  RH WIND       PRES   REMARKS
JACKSON        MOSUNNY   85  72  65 VRB5      30.06F HX  91
LONDON         PTSUNNY   85  70  60 SW10      30.07F
SOMERSET       CLOUDY    82  70  65 W10G18    30.07F
MIDDLESBORO    CLOUDY    86  71  59 S8        30.10F HX  91
MONTICELLO     PTSUNNY   87  76  69 W16       30.08F HX  97
$$




USA.gov is the U.S. government's official web portal to all federal, state and local government web resources and services.